Orbital Elements at Epoch 2459200.5 (2020-Dec-17.0) TDB
Reference: JPL 38 (heliocentric ecliptic J2000)
Element | Value | Uncertainty (1-sigma) | Units |
e | .1615263143650169 | 9.7176e-09 | |
a | 2.745630796177446 | 1.092e-08 | au |
q | 2.302139173063816 | 2.6635e-08 | au |
i | 14.15512350040844 | 4.9001e-07 | deg |
node | 188.2910527882351 | 3.0513e-06 | deg |
peri | 294.1963296799872 | 1.2794e-05 | deg |
M | 58.94796305682577 | 9.6618e-06 | deg |
tp | 2458928.400380218166 (2020-Mar-19.90038022) | 4.4478e-05 | TDB |
period | 1661.734486517048 4.55 | 9.9136e-06 2.714e-08 | d yr |
n | .2166411077828388 | 1.2924e-09 | deg/d |
Q | 3.189122419291076 | 1.2684e-08 | au |
|
| | Orbit Determination Parameters
Additional Information
|